This demonstration page uses our WeatherBlox Daily Observations layout. Learn more.

Hourly Observations for June 28, 2015

Temp ( °F °C ) Dew Point ( °F °C ) Humidity (%) Winds ( mph kmh ) Pressure ( in mb ) Visibility ( mi km ) Precip ( " mm )
12:15 am 00:15 Clear 68 20 57 14 69 69 SSW 7 11 30 1016 10 16.09344 0 0
12:35 am 00:35 Clear 68 20 55 13 64 64 SSW 7 11 29.94 1014 10 16.09344 0 0
12:55 am 00:55 Clear 66 19 55 13 68 68 SSW 6 9 29.97 1015 10 16.09344 0 0
1:15 am 01:15 Clear 68 20 55 13 64 64 SSW 6 9 29.94 1014 10 16.09344 0 0
1:35 am 01:35 Clear 66 19 55 13 68 68 SSW 6 9 29.97 1015 10 16.09344 0 0
1:55 am 01:55 Clear 66 19 55 13 68 68 SW 6 9 29.97 1015 10 16.09344 0 0
2:15 am 02:15 Clear 66 19 55 13 68 68 SW 7 11 29.94 1014 10 16.09344 0 0
2:35 am 02:35 Clear 66 19 54 12 64 64 SW 9 15 29.94 1014 10 16.09344 0 0
2:55 am 02:55 Clear 66 19 54 12 64 64 SW 8 13 29.94 1014 10 16.09344 0 0
3:15 am 03:15 Clear 68 20 54 12 60 60 SW 12 19 29.91 1013 10 16.09344 0 0
3:35 am 03:35 Clear 70 21 52 11 53 53 WSW 9 15 29.91 1013 10 16.09344 0 0
3:55 am 03:55 Clear 70 21 52 11 53 53 WSW 8 13 29.91 1013 10 16.09344 0 0
4:15 am 04:15 Clear 70 21 52 11 53 53 WSW 8 13 29.88 1012 10 16.09344 0 0
4:35 am 04:35 Clear 68 20 52 11 56 56 W 8 13 29.88 1012 10 16.09344 0 0
4:55 am 04:55 Clear 66 19 52 11 60 60 W 9 15 29.91 1013 10 16.09344 0 0
5:15 am 05:15 Clear 66 19 52 11 60 60 W 8 13 29.91 1013 10 16.09344 0 0
5:35 am 05:35 Clear 64 18 54 12 68 68 W 7 11 29.91 1013 10 16.09344 0 0
5:55 am 05:55 Clear 64 18 54 12 68 68 W 8 13 29.91 1013 10 16.09344 0 0
6:15 am 06:15 Sunny 64 18 54 12 68 68 NW 10 17 29.94 1014 10 16.09344 0 0
6:35 am 06:35 Sunny 64 18 54 12 68 68 NW 5 7 29.94 1014 10 16.09344 0 0
6:55 am 06:55 Sunny 64 18 55 13 73 73 WNW 5 7 29.94 1014 10 16.09344 0 0
7:15 am 07:15 Sunny 66 19 55 13 68 68 WNW 5 7 29.94 1014 10 16.09344 0 0
7:35 am 07:35 Sunny 68 20 57 14 69 69 NW 5 7 29.91 1013 10 16.09344 0 0
7:55 am 07:55 Sunny 70 21 57 14 64 64 NW 8 13 29.91 1013 10 16.09344 0 0
8:15 am 08:15 Sunny 72 22 59 15 65 65 NW 8 13 29.91 1013 10 16.09344 0 0
8:35 am 08:35 Sunny 73 23 59 15 61 61 NNW 6 9 29.91 1013 10 16.09344 0 0
8:55 am 08:55 Sunny 75 24 59 15 57 57 NNW 6 9 29.88 1012 10 16.09344 0 0
9:15 am 09:15 Sunny 77 25 59 15 54 54 NNW 8 13 29.88 1012 10 16.09344 0 0
9:35 am 09:35 Sunny 77 25 61 16 57 57 NNW 6 9 29.91 1013 10 16.09344 0 0
9:55 am 09:55 Sunny 79 26 59 15 51 51 NNW 5 7 29.91 1013 10 16.09344 0 0
10:15 am 10:15 Sunny 81 27 61 16 51 51 N 8 13 29.91 1013 10 16.09344 0 0
10:35 am 10:35 Sunny 81 27 59 15 48 48 N 8 13 29.91 1013 10 16.09344 0 0
10:55 am 10:55 Sunny 82 28 59 15 45 45 N 9 15 29.88 1012 10 16.09344 0 0
11:15 am 11:15 Sunny 82 28 57 14 42 42 N 10 17 29.88 1012 10 16.09344 0 0
11:35 am 11:35 Sunny 82 28 57 14 42 42 N 9 15 29.88 1012 10 16.09344 0 0
11:55 am 11:55 Sunny 84 29 54 12 35 35 NNW 10 17 29.88 1012 10 16.09344 0 0
12:15 pm 12:15 Sunny 84 29 54 12 35 35 N 8 13 29.88 1012 10 16.09344 0 0
12:35 pm 12:35 Sunny 84 29 54 12 35 35 N 10 17 29.88 1012 10 16.09344 0 0
12:55 pm 12:55 Sunny 86 30 54 12 33 33 N 12 19 29.85 1011 10 16.09344 0 0
1:15 pm 13:15 Sunny 86 30 54 12 33 33 N 13 20 29.85 1011 10 16.09344 0 0
1:35 pm 13:35 Sunny 86 30 55 13 35 35 N 7 11 29.85 1011 10 16.09344 0 0
1:55 pm 13:55 Sunny 86 30 55 13 35 35 N 13 20 29.85 1011 10 16.09344 0 0
2:15 pm 14:15 Sunny 88 31 55 13 33 33 N 9 15 29.83 1010 10 16.09344 0 0
2:35 pm 14:35 Sunny 86 30 54 12 33 33 N 12 19 29.85 1011 10 16.09344 0 0
2:55 pm 14:55 Sunny 88 31 55 13 33 33 NNW 9 15 29.83 1010 10 16.09344 0 0
3:15 pm 15:15 Sunny 88 31 55 13 33 33 NNW 10 17 29.83 1010 10 16.09344 0 0
3:35 pm 15:35 Sunny 88 31 52 11 29 29 N 13 20 29.83 1010 10 16.09344 0 0
3:55 pm 15:55 Sunny 88 31 54 12 31 31 N 15 24 29.83 1010 10 16.09344 0 0
4:15 pm 16:15 Sunny 88 31 52 11 29 29 NNW 16 26 29.83 1010 10 16.09344 0 0
4:35 pm 16:35 Sunny 88 31 52 11 29 29 N 15 24 29.83 1010 10 16.09344 0 0
4:55 pm 16:55 Sunny 88 31 54 12 31 31 NNW 14 22 29.8 1009 10 16.09344 0 0
5:15 pm 17:15 Sunny 88 31 52 11 29 29 N 15 24 29.8 1009 10 16.09344 0 0
5:35 pm 17:35 Sunny 86 30 52 11 31 31 N 17 28 29.83 1010 10 16.09344 0 0
5:55 pm 17:55 Sunny 86 30 52 11 31 31 N 12 19 29.83 1010 10 16.09344 0 0
6:15 pm 18:15 Sunny 86 30 52 11 31 31 N 13 20 29.83 1010 10 16.09344 0 0
6:35 pm 18:35 Sunny 86 30 52 11 31 31 N 12 19 29.83 1010 10 16.09344 0 0
6:55 pm 18:55 Sunny 86 30 52 11 31 31 N 10 17 29.83 1010 10 16.09344 0 0
7:15 pm 19:15 Sunny 82 28 52 11 35 35 NNE 10 17 29.83 1010 10 16.09344 0 0
8:55 pm 20:55 Sunny 75 24 57 14 54 54 N 6 9 29.88 1012 10 16.09344 0 0
9:15 pm 21:15 Clear 72 22 57 14 61 61 N 5 7 29.91 1013 10 16.09344 0 0
9:35 pm 21:35 Clear 72 22 57 14 61 61 NNE 5 7 29.91 1013 10 16.09344 0 0
9:55 pm 21:55 Clear 68 20 57 14 69 69 N 5 7 29.91 1013 10 16.09344 0 0
10:15 pm 22:15 Clear 66 19 55 13 68 68 NE 5 7 29.94 1014 10 16.09344 0 0
10:35 pm 22:35 Clear 66 19 57 14 73 73 ENE 9 15 29.94 1014 10 16.09344 0 0
10:55 pm 22:55 Clear 66 19 55 13 68 68 ENE 7 11 29.97 1015 10 16.09344 0 0
11:15 pm 23:15 Clear 64 18 55 13 73 73 ENE 5 7 29.97 1015 10 16.09344 0 0
11:35 pm 23:35 Clear 64 18 55 13 73 73 ENE 6 9 29.97 1015 10 16.09344 0 0
11:55 pm 23:55 Clear 63 17 55 13 77 77 E 6 9 29.97 1015 10 16.09344 0 0

Powered by AerisWeather